Content
SEND FEEDBACK

Daily
Averages
Monthly
Summary
United Kingdom

CHAPEL, ENGLAND


Home > Europe > United Kingdom > England
Elevation: 30 feet     Latitude: 50 54N     Longitude: 001 24W

WEATHER
 
SELECT A DAY
Number of Records: 193,426;   Date Range: 7/1/96 - 8/18/14
 
SHARE

PRINT THIS DATA

[ ← Previous Day ]
WEATHER ALMANAC - OCTOBER 18, 2013
[ Next Day → ]
[ °C ]   °F
Weather ElementAverageHighLow
Temperature57.2 °F60.8 °F (12:50 pm)51.8 °F (6:20 am)
Dewpoint53.2 °F55.4 °F (9:20 am)50 °F (6:20 am)
Humidity86.6 %100 % (9:20 am)77 % (12:50 pm)
Barometer29.89 in29.98 in (6:20 am)29.77 in (8:50 pm)
Wind Speed6.6 mph11.5 mph (6:50 pm)
Wind Gust23 mph (6:50 pm)
Weather ElementAverage
Visibility5.4 mi
Wind DirectionESE (113.3 °)

Weather ElementTotal
Precipitation---
Heating Degree Days8.7 (Base 65)
Growing Degree Days6.3 (Base 50)
Averaged from 33 records on October 18, 2013
WEATHER CONDITIONS BREAKOUT
WIND DIRECTION BREAKOUT
WEATHER BY HOUR - OCTOBER 18, 2013
[ °C ]   °F
Local TimeTemperatureDewpointHumidityBarometerVisibilityWind DirectionWind SpeedGust SpeedPrecipitationEventsConditions
6:20 AM51.8 °F50.0 °F94 %29.98 in0.2 miVariable2.3 mphFogFog
6:50 AM51.8 °F50.0 °F94 %29.98 in0.6 miVariable2.3 mphFogFog
7:20 AM53.6 °F51.8 °F94 %29.95 in0.6 miEast (90°)4.6 mphMostly Cloudy
7:50 AM53.6 °F51.8 °F94 %29.98 in2.2 miEast (100°)3.5 mphMostly Cloudy
8:20 AM53.6 °F51.8 °F94 %29.98 in3.1 miVariable2.3 mphScattered Clouds
8:50 AM55.4 °F53.6 °F94 %29.98 in4.3 miEast (100°)4.6 mphScattered Clouds
9:20 AM55.4 °F55.4 °F100 %29.95 in5.6 miESE (110°)5.8 mphMostly Cloudy
9:50 AM57.2 °F55.4 °F94 %29.98 in5.6 miESE (120°)6.9 mphMostly Cloudy
10:20 AM57.2 °F55.4 °F94 %29.98 in5.6 miSE (130°)5.8 mphMostly Cloudy
10:50 AM57.2 °F55.4 °F94 %29.95 in6.2 miSE (130°)5.8 mphMostly Cloudy
11:20 AM59.0 °F55.4 °F88 %29.95 in6.2 miSE (130°)5.8 mphMostly Cloudy
11:50 AM59.0 °F55.4 °F88 %29.95 in6.2 miSE (140°)5.8 mphMostly Cloudy
12:20 PM59.0 °F53.6 °F82 %29.92 in6.2 miSE (130°)8.1 mphMostly Cloudy
12:50 PM60.8 °F53.6 °F77 %29.92 in6.2 miSE (140°)4.6 mphMostly Cloudy
1:20 PM60.8 °F53.6 °F77 %29.92 in6.2 miSE (140°)4.6 mphMostly Cloudy
1:50 PM60.8 °F53.6 °F77 %29.92 in6.2 miSE (140°)6.9 mph19.6 mphMostly Cloudy
2:20 PM59.0 °F53.6 °F82 %29.89 in6.2 miSSE (150°)5.8 mph17.3 mphMostly Cloudy
2:50 PM59.0 °F53.6 °F82 %29.89 in6.2 miSE (140°)5.8 mphMostly Cloudy
3:20 PM59.0 °F53.6 °F82 %29.89 in6.2 miSE (140°)4.6 mphMostly Cloudy
3:50 PM59.0 °F53.6 °F82 %29.86 in6.2 miSE (130°)8.1 mphMostly Cloudy
4:20 PM59.0 °F53.6 °F82 %29.86 in6.2 miSE (130°)8.1 mphScattered Clouds
4:50 PM57.2 °F53.6 °F88 %29.83 in6.2 miESE (120°)9.2 mphScattered Clouds
5:20 PM57.2 °F51.8 °F82 %29.83 in6.2 miESE (110°)9.2 mphScattered Clouds
5:50 PM57.2 °F53.6 °F88 %29.80 in6.2 miESE (120°)8.1 mphScattered Clouds
6:20 PM57.2 °F53.6 °F88 %29.80 in6.2 miESE (120°)9.2 mphScattered Clouds
6:50 PM57.2 °F53.6 °F88 %29.80 in6.2 miESE (110°)11.5 mph23.0 mphScattered Clouds
7:20 PM57.2 °F53.6 °F88 %29.80 in6.2 miSE (130°)9.2 mphScattered Clouds
7:50 PM57.2 °F51.8 °F82 %29.80 in6.2 miESE (120°)8.1 mphPartly Cloudy
8:20 PM57.2 °F51.8 °F82 %29.80 in6.2 miESE (120°)8.1 mphPartly Cloudy
8:50 PM57.2 °F51.8 °F82 %29.77 in6.2 miESE (110°)10.4 mphPartly Cloudy
9:20 PM57.2 °F51.8 °F82 %29.77 in6.2 miSE (130°)11.5 mphPartly Cloudy
9:50 PM57.2 °F51.8 °F82 %29.77 in6.2 miSE (130°)5.8 mphScattered Clouds
10:20 PM57.2 °F51.8 °F82 %29.77 in6.2 miSE (130°)5.8 mphScattered Clouds
Hourly data recorded from EGHI, located miles away from Chapel, England







STORIES FROM OUR PARTNERS